DMSP 5D-2 F13 DEB, 42320

Orbit data source: Space-Track

DMSP 5D-2 F13 DEB, 42320 is space debris in SSO originally from a launch on Fri, 24 Mar 1995 UTC launched from the Air Force Western Test Range (AFWTR). Debris objects in space refer to the collection of defunct objects orbiting the Earth. Examples of debris include non-operational satellites, rocket bodies, and fragments generated from explosions, collisions, or faulty payload assembly.

Loading next visibility...
Identifier
42320, 1995-015JN
Orbit
SSO
Country
Flag of USUS
Related business
Manufacturer
Unknown
Mission
Spacecraft
Bus & Motor
Unknown
Mass
Unknown
Launch date (UTC)
1995-03-24 (31 years ago)
Launch vehicle
Unknown
Launch site
Air Force Western Test Range (AFWTR)
Object type
Payload
Rocket body
Debris
Shape & HBR
Unknown shape, 0.1 m
Radar Cross Section
Small (<0.1 m²)

Expand to show TLE details & history
Last TLE update: 17 hours ago

TLE from 17 hours ago
0 DMSP 5D-2 F13 DEB
1 42320U 95015JN  25296.35661913  .00007428  00000-0  22752-2 0  9990
2 42320  98.6394 331.5937 0007414 216.6236 143.4446 14.41998582548010
Epoch: 2025-10-23T08:33Z
TLE epoch observation values (Epoch: 2025-10-23T08:33:31.892Z)
Latitude
-0.00012°
Longitude
171.19379°
Altitude
759.098 km
Speed
7.473 km/s
True Right ascension
22h 06m 22s
True Declination
0° 00' 00"
Sunlit
Object was in full shadow at epoch
Visualization orbit readout
Latitude
Unknown
Longitude
Unknown
Altitude
Unknown
Speed
Unknown
Apparent Right ascension
Unknown
Apparent Declination
Unknown
Sunlit
N/A
Visualization observer readout
Local Sidereal Time
21:04:58
Azimuth
Unknown
Elevation
Unknown
Doppler factor
Unknown
Orbital elements
Apogee altitude
754.313 km
Perigee altitude
743.745 km
Semi-major axis
7,127.166 km
Eccentricity
0.00074
Inclination
98.6394°
RAAN
331.5937°
Arg. of periapsis
216.6236°
True anomaly
143.49516°
Mean anomaly
143.4446°
Eccentric anomaly
143.46989°
Mean motion
3.60718 °/min
Orbital period
99.8 mins
BSTAR
0.0022752

Documentation

Showing up to 5 results
|